Flag for Australia Weather past 2 weeks in Adelaide, South Australia, Australia

Now
59 °F

Clear.


Feels Like: 57 °F
Forecast: 56 / 74 °F
Wind: 9 mph from Northeast

Location: Adelaide Airport

Current Time: Sep 23, 2014 at 6:11:56 AM

Latest Report: Sep 23, 2014 at 5:30 AM


Visibility: 10 mi

Pressure: 30.12 "Hg

Humidity: 45%

Dew point: 37 °F

Location of AdelaideLocation

Historic Weather in Adelaide — Graph

°F

Adelaide temperature yesterday

Maximum temperature yesterday: 79 °F (at 1:00 PM)
Minimum temperature yesterday: 46 °F (at 3:00 AM)
Average temperature yesterday: 65 °F

Past Weeks' High & Low Weather Summary

 TemperatureHumidityPressure
High79 °F (Sep 14, 2:30 PM)94% (Sep 9, 1:30 AM)30.42 "Hg (Sep 9, 1:30 AM)
Low41 °F (Sep 13, 5:30 AM)11% (Sep 22, 11:00 AM)29.53 "Hg (Sep 8, 5:00 PM)
Average58 °F62%30.11 "Hg
* Reported Sep 8 4:30 AM — Sep 23 4:30 AM, Adelaide, Weather by CustomWeather, © 2014

Note: Actual official high and low records may vary slightly from our data, if they occured in-between our weather recording intervals... More about our weather records

Advertising

Adelaide weather history for previous 24 hours

 ConditionsComfort  
Time TempWeatherWind HumidityBarometerVisibility
4:30 AM
Sep 23
57 °FClear.7 mph48%30.12 "Hg10 mi
4:00 AM61 °FClear.10 mph36%30.12 "Hg10 mi
3:30 AM61 °FClear.10 mph29%30.12 "Hg10 mi
2:30 AM64 °FClear.10 mph24%30.12 "Hg10 mi
2:00 AM64 °FClear.10 mph26%30.12 "Hg10 mi
1:30 AM66 °FClear.10 mph21%30.12 "Hg10 mi
1:00 AM64 °FClear.10 mph26%30.15 "Hg10 mi
12:30 AM63 °FClear.10 mph25%30.15 "Hg10 mi
12:00 AM64 °FClear.13 mph24%30.15 "Hg10 mi
11:30 PM
Sep 22
66 °FClear.12 mph19%30.15 "Hg10 mi
11:00 PM64 °FClear.10 mph22%30.15 "Hg10 mi
10:30 PM64 °FClear.10 mph22%30.15 "Hg10 mi
10:00 PM64 °FClear.9 mph21%30.15 "Hg10 mi
9:30 PM66 °FClear.10 mph19%30.15 "Hg10 mi
9:00 PM63 °FClear.10 mph25%30.15 "Hg10 mi
8:30 PM63 °FClear.9 mph27%30.15 "Hg10 mi
8:00 PM64 °FClear.9 mph26%30.15 "Hg10 mi
7:30 PM64 °FClear.6 mph32%30.15 "Hg10 mi
7:00 PM64 °FClear.5 mph37%30.15 "Hg10 mi
6:30 PM68 °FClear.5 mph35%30.12 "Hg10 mi
6:00 PM70 °FClear.6 mph21%30.12 "Hg10 mi
5:30 PM72 °FSunny.6 mph25%30.12 "Hg10 mi
5:00 PM73 °FSunny.8 mph14%30.12 "Hg10 mi
4:30 PM73 °FSunny.8 mph13%30.12 "Hg10 mi
4:00 PM73 °FSunny.8 mph15%30.12 "Hg10 mi
3:30 PM73 °FSunny.8 mph15%30.12 "Hg10 mi
3:00 PM73 °FSunny.9 mph20%30.15 "Hg10 mi
2:30 PM72 °FSunny.10 mph29%30.15 "Hg10 mi
2:00 PM72 °FSunny.12 mph29%30.15 "Hg10 mi
1:30 PM73 °FSunny.7 mph27%30.15 "Hg10 mi
1:00 PM79 °FSunny.16 mph12%30.18 "Hg10 mi
12:30 PM77 °FSunny.15 mph12%30.18 "Hg10 mi
12:00 PM77 °FSunny.15 mph12%30.21 "Hg10 mi
11:30 AM75 °FSunny.14 mph12%30.21 "Hg10 mi
11:00 AM73 °FSunny.15 mph11%30.24 "Hg10 mi
10:30 AM75 °FSunny.18 mph13%30.24 "Hg10 mi
9:30 AM72 °FSunny.17 mph19%30.27 "Hg10 mi
9:00 AM70 °FSunny.17 mph20%30.27 "Hg10 mi
8:30 AM68 °FSunny.12 mph23%30.27 "Hg10 mi
8:00 AM64 °FSunny.13 mph28%30.27 "Hg10 mi
7:30 AM61 °FSunny.10 mph34%30.27 "Hg10 mi
7:00 AM57 °FSunny.10 mph39%30.27 "Hg10 mi
6:30 AM54 °FSunny.10 mph41%30.27 "Hg10 mi
Weather by CustomWeather, © 2014

See weather overviewHow to use our weather pages